Orbital elements:
2023 XM1                                                 Earth MOID = 0.0181 AU
Epoch 2023 Sept. 13.0 TT = JDT 2460200.5                Veres                   
M 340.82988              (2000.0)            P               Q                  
n   0.72781176     Peri.  107.95305     +0.94083297     +0.03354195             
a   1.2240242      Node   251.22159     -0.12956724     +0.95508632             
e   0.3105076      Incl.   20.86486     +0.31312241     +0.29442328             
P   1.35           H   24.48          G   0.15           U   7                  
Residuals in seconds of arc
231204 703  0.0   0.2+    231204 O85  0.0   0.2+    231204 M28  0.5-  1.9-
231204 703  0.4+  0.6-    231204 O85  0.0   0.2+    231204 M44  1.5+  0.1-
231204 703  0.1+  0.5-    231204 O85  0.1+  0.1+    231204 958  0.0   0.0
231204 703  0.2+  0.4-    231204 O85  0.2-  0.2+    231204 958  0.1-  0.0
231204 U74  0.2+  0.7-    231204 O85  0.2+  0.2+    231204 958  0.4+  0.1+
231204 I52  0.1-  0.2-    231204 O85  0.1+  0.1-    231205 Y05  0.1+  0.1-
231204 I52  0.1-  0.2-    231204 L18  0.0   0.2+    231205 Y05  0.3+  0.2+
231204 I52  0.0   0.1-    231204 L04  0.0   0.1+    231205 Y05  0.3-  0.1+
231204 I52  0.1-  0.1-    231204 L18  0.5+  0.1+    231205 V27  0.4+  0.1+
231204 U74  0.2+  0.6-    231204 L04  0.1+  0.2-    231205 V27  0.1-  0.7-
231204 G96  0.0   0.1-    231204 L18  0.3+  0.3+    231205 V27  0.2-  1.5+
231204 G96  0.3-  0.5+    231204 L04  0.2+  0.3-    231205 V27  3.4+  3.6-
231204 G96  0.1-  0.0     231204 L18  0.2-  0.2+    231205 718  0.9-  0.0
231204 G96  0.1-  0.1+    231204 L04  0.1+  0.2+    231205 718  0.6+  0.3-
231204 I52  0.1-  0.1+    231204 M45  0.3+  0.3-    231205 718  0.7-  1.3+
231204 I52  0.1-  0.1-    231204 M45  0.3+  0.4-    231205 V27  0.3-  0.9-
231204 I52  0.1-  0.0     231204 M45  0.6+  0.6-    231205 V27  0.5-  0.9+
231204 I52  0.1-  0.0     231204 M63  0.2+  0.3-    231205 734  0.2+  0.7-
231204 E23  0.5+  0.0     231204 M63  0.3+  0.2-    231205 734  0.0   0.6-
231204 E23  0.3+  0.3-    231204 M63  0.1+  0.2-    231205 734  0.0   0.3-
231204 E23  0.1+  0.2-    231204 M28  0.2-  0.8-    231205 G96  0.0   0.0
231204 900  0.1+  0.0     231204 M44  0.4+  1.4+    231205 G96  0.1-  0.2+
231204 900  0.2+  0.1-    231204 M44  0.4-  2.1+    231205 G96  0.0   0.1+
231204 900  0.2+  0.0     231204 M28 (0.8+  3.5-)

Ephemeris:
2023 XM1                 a,e,i = 1.22, 0.31, 21                  q = 0.8440
Date    TT    R. A. (2000) Decl.     Delta      r    Elong.  Phase     V
2023 11 05    16 51 22.1 +31 01 15   0.2245  0.8874    56.4   111.4    25.2
...
2023 11 20    17 13 21.0 +38 07 56   0.1055  0.9429    61.7   112.6    23.8
...
2023 11 28    18 17 54.7 +51 28 48   0.04351 0.9783    77.6    99.9    21.2
...
2023 12 04    02 42 06.4 +25 24 31   0.02333 1.0066   153.2    26.2    17.5
2023 12 05    03 12 46.7 +12 18 02   0.02816 1.0114   156.3    23.0    17.8
2023 12 06    03 31 39.3 +03 19 40   0.03432 1.0163   153.5    25.6    18.4
...
2023 12 12    04 12 54.6 -15 47 12   0.07994 1.0459   138.5    38.6    20.6
...
2023 12 20    04 27 58.8 -20 49 43   0.1459  1.0861   131.6    42.7    22.1
...
2024 01 04    04 41 25.0 -21 28 58   0.2738  1.1621   125.0    43.9    23.7

M. P. C. Staff               (C) Copyright 2023 MPC           M.P.E.C. 2023-X74





More information about the Iaude mailing list